Flag for Slovakia Weather past 2 weeks in Piešťany, Slovakia

Now
45 °F

Light rain. Low clouds.


Feels Like: 43 °F
Forecast: 42 / 50 °F
Wind: 3 mph from South

Location: Piestany

Current Time: Dec 19, 2014 at 4:41:04 AM

Latest Report: Dec 19, 2014 at 4:00 AM


Visibility: 1 mi

Pressure: 30.01 "Hg

Humidity: 93%

Dew point: 43 °F

Location of PiešťanyLocation

Historic Weather in Piešťany — Graph

°F

Piešťany temperature yesterday

Maximum temperature yesterday: 48 °F (at 3:00 PM)
Minimum temperature yesterday: 37 °F (at 12:00 AM)
Average temperature yesterday: 42 °F

Past Weeks' High & Low Weather Summary

 TemperatureHumidityPressure
High48 °F (Dec 5, 2:00 PM)100% (Dec 11, 8:00 PM)30.30 "Hg (Dec 11, 8:00 PM)
Low27 °F (Dec 10, 8:00 AM)57% (Dec 9, 2:30 PM)29.86 "Hg (Dec 16, 5:00 PM)
Average39 °F85%30.06 "Hg
* Reported Dec 4 3:00 AM — Dec 19 3:30 AM, Piešťany, Weather by CustomWeather, © 2014

Note: Actual official high and low records may vary slightly from our data, if they occured in-between our weather recording intervals... More about our weather records

Advertising

Piešťany weather history for previous 24 hours

 ConditionsComfort  
Time TempWeatherWind HumidityBarometerVisibility
3:30 AM
Dec 19
45 °FDrizzle. Fog.1 mph93%30.01 "Hg1 mi
3:00 AM45 °FLight rain. Low clouds.2 mph93%30.01 "Hg1 mi
2:30 AM45 °FLight rain. Low clouds.3 mph93%30.01 "Hg1 mi
2:00 AM45 °FLight rain. Low clouds.3 mph87%30.01 "Hg1 mi
1:30 AM45 °FLight rain. Low clouds.5 mph87%30.01 "Hg1 mi
1:00 AM45 °FLight rain. Low clouds.6 mph87%30.01 "Hg1 mi
12:30 AM45 °FFog.6 mph87%30.01 "Hg2 mi
12:00 AM45 °FPassing clouds.5 mph87%30.04 "Hg4 mi
11:30 PM
Dec 18
45 °FFog.5 mph87%30.04 "Hg2 mi
11:00 PM45 °FOvercast.6 mph87%30.04 "Hg6 mi
10:30 PM46 °FOvercast.6 mph82%30.04 "Hg6 mi
10:00 PM43 °FFog.No wind93%30.04 "Hg2 mi
9:30 PM43 °FFog.1 mph93%30.04 "Hg2 mi
9:00 PM43 °FFog.1 mph93%30.04 "Hg3 mi
8:30 PM41 °FFog.No wind93%30.04 "Hg2 mi
8:00 PM41 °FFog.1 mph93%30.04 "Hg3 mi
7:30 PM41 °FFog.1 mph93%30.04 "Hg3 mi
7:00 PM43 °FFog.1 mph93%30.04 "Hg2 mi
6:30 PM43 °FPartly cloudy.1 mph87%30.04 "HgN/A
6:00 PM45 °FPartly cloudy.1 mph87%30.04 "HgN/A
5:30 PM45 °FClear.3 mph87%30.04 "Hg10 mi
5:00 PM45 °FLight rain. Clear.2 mph87%30.04 "HgN/A
4:30 PM45 °FClear.3 mph87%30.04 "Hg10 mi
4:00 PM46 °FClear.3 mph82%30.04 "Hg10 mi
3:30 PM48 °FSunny.3 mph76%30.04 "Hg10 mi
3:00 PM48 °FSunny.2 mph76%30.01 "Hg10 mi
2:30 PM46 °FSunny.2 mph82%30.01 "Hg10 mi
2:00 PM46 °FSunny.5 mph82%30.01 "Hg10 mi
1:30 PM46 °FSunny.2 mph76%30.01 "Hg10 mi
1:00 PM46 °FPartly sunny.2 mph76%30.01 "HgN/A
12:30 PM45 °FPartly sunny.3 mph87%30.01 "HgN/A
12:00 PM45 °FBroken clouds.3 mph81%30.04 "HgN/A
11:30 AM45 °FSunny.3 mph81%30.04 "Hg10 mi
11:00 AM45 °FSunny.5 mph81%30.04 "Hg10 mi
10:30 AM45 °FClear.3 mph81%30.04 "Hg6 mi
10:00 AM43 °FClear.1 mph87%30.04 "Hg4 mi
9:30 AM41 °FPartly sunny.No wind93%30.01 "Hg4 mi
9:00 AM41 °FBroken clouds.1 mph93%30.01 "Hg4 mi
8:30 AM39 °FFog.2 mph93%30.01 "Hg2 mi
8:00 AM39 °FFog.No wind93%29.98 "Hg1 mi
7:30 AM39 °FFog.No wind93%29.98 "Hg1 mi
7:00 AM37 °FLight rain. Fog.2 mph100%29.98 "Hg1 mi
6:30 AM37 °FFog.2 mph93%29.95 "Hg1 mi
6:00 AM37 °FFog.No wind93%29.95 "Hg1 mi
5:30 AM37 °FFog.No wind93%29.95 "Hg1 mi
4:30 AM37 °FFog.2 mph93%29.92 "Hg1 mi
4:00 AM37 °FFog.1 mph93%29.92 "Hg2 mi
Weather by CustomWeather, © 2014

See weather overviewHow to use our weather pages